Wind_Speed
15 15 16 16 16 16 18 16 15 12 14 11 13 17 14 15 15 16 16 13 12 13 17 18 22 18 17 18 20 17 15 13 13 20 27 32 24 18
14 15 17 17 17 17 16 16 16 16 14 17 16 23 24 22 19 16 17 15 12 17 19 22 20 18 16 16 18 13 10 4 9 17 24 31 24 24
16 16 16 16 15 16 16 15 15 14 17 19 22 23 21 20 19 19 19 17 16 17 20 20 19 18 16 17 17 10 7 3 22 23 26 29 25 17
16 15 17 17 15 15 14 13 14 15 18 21 22 21 20 20 20 19 19 18 18 18 19 21 19 18 15 16 17 10 10 12 11 9 12 13 11 8
17 17 17 15 15 14 14 15 15 17 18 22 22 24 21 19 20 20 20 19 20 20 20 20 20 17 15 14 12 11 12 13 11 11 12 11 9 8
16 15 15 14 15 15 16 18 19 19 20 21 22 23 24 23 22 19 18 20 20 21 20 19 17 16 14 13 12 9 15 14 14 13 14 13 10 9
14 14 15 15 16 17 19 20 22 21 19 19 20 23 23 23 22 20 17 18 20 20 19 17 17 16 15 14 13 11 15 16 16 15 15 14 13 12
14 15 16 17 19 20 21 20 19 19 19 20 22 22 20 22 22 20 16 14 15 17 18 18 18 18 17 14 14 14 16 16 15 17 16 15 14 14
15 16 17 18 19 20 20 19 19 19 20 19 19 17 20 21 21 21 18 17 16 17 15 16 18 18 18 16 15 14 14 16 16 17 17 16 16 15
13 15 17 18 18 18 18 18 17 18 18 17 17 16 17 20 22 22 19 18 17 17 18 18 17 16 16 16 16 15 14 15 15 16 16 15 16 15
13 14 14 15 17 17 17 17 16 15 15 15 14 15 16 16 16 16 16 17 19 19 19 18 17 16 15 15 15 17 16 15 16 16 15 15 15 15
10 11 11 13 15 15 15 15 14 15 14 13 14 13 15 14 14 13 15 17 16 16 17 17 17 13 10 16 17 16 17 16 16 15 15 15 15 14
7 9 11 12 12 12 12 13 15 15 14 14 15 14 14 13 13 13 13 16 16 17 12 11 14 15 17 12 7 16 17 16 15 15 15 15 15 15
12 11 12 14 15 13 15 14 14 15 15 16 16 13 14 15 14 13 13 14 15 16 17 15 14 12 13 17 14 9 17 17 17 16 16 16 16 15
16 15 13 13 16 16 16 17 15 14 14 16 15 14 14 14 13 13 14 14 15 15 16 16 16 15 15 14 16 14 8 16 18 18 16 15 15 16
17 15 15 17 17 15 17 18 16 13 15 17 16 15 14 13 13 13 14 15 16 16 17 16 16 17 18 16 15 15 12 9 13 18 17 17 17 16
18 17 17 17 17 16 17 17 17 15 16 17 17 16 15 13 13 13 15 15 15 15 15 15 16 17 17 16 16 15 15 14 13 10 13 15 15 15
19 19 19 13 15 16 16 17 17 17 17 18 16 15 14 14 14 14 14 15 15 14 14 12 13 14 15 16 17 17 17 16 16 14 14 14 13 13
19 18 17 13 14 15 16 17 17 17 17 17 16 15 14 14 15 15 14 14 15 15 15 14 13 14 15 16 15 15 18 17 16 15 14 12 10 12
20 19 17 16 16 16 15 16 17 18 17 16 17 15 14 15 15 15 15 14 14 15 16 17 16 15 15 17 14 12 12 14 16 15 15 14 15 14
21 22 19 18 19 18 17 16 16 15 16 17 17 16 15 16 15 15 14 14 14 16 18 18 12 14 16 17 19 16 15 14 14 16 16 17 15 16
22 23 21 20 19 19 19 18 18 18 17 18 19 20 18 18 17 16 15 15 16 17 16 15 16 17 20 20 19 18 16 16 16 18 20 20 17 13
21 22 21 21 21 21 21 20 18 18 18 18 20 21 22 21 19 18 17 17 17 18 17 17 18 20 22 22 22 21 21 21 20 21 24 21 21 22
Wind_Direction
226 233 241 247 265 267 275 269 260 277 293 301 277 292 293 297 286 288 288 276 268 231 252 254 258 266 287 301 310 303 307 284 245 221 215 212 215 183
231 239 249 259 265 270 273 271 267 256 255 276 268 283 293 295 292 289 295 279 260 247 258 263 266 263 282 301 307 310 324 288 218 209 204 202 185 206
238 245 256 262 265 268 270 271 272 266 264 276 280 288 291 291 287 284 280 277 272 269 258 257 261 268 285 305 312 299 250 193 171 171 168 182 194 198
238 245 251 255 257 261 266 270 277 278 278 285 287 293 292 290 290 288 284 273 268 268 268 265 261 266 281 300 307 288 232 233 231 191 180 186 196 204
236 240 245 247 253 266 272 277 280 284 285 286 290 291 288 278 273 276 276 273 267 262 263 263 266 268 280 294 299 285 241 231 231 221 209 225 238 236
236 239 245 253 263 270 275 278 283 289 291 292 293 295 291 286 280 276 273 268 268 265 261 259 266 272 277 296 298 248 227 223 221 215 221 232 232 234
234 242 251 259 265 273 280 283 288 288 288 290 291 291 288 282 281 279 275 271 266 261 257 257 262 265 269 284 287 255 234 229 227 226 224 230 236 231
240 249 258 264 270 275 277 280 282 287 296 300 312 309 293 284 277 273 275 276 263 264 260 261 263 263 262 271 272 258 237 233 231 231 233 236 237 235
246 255 263 270 274 277 278 279 282 286 284 290 300 307 287 284 278 278 275 271 269 263 266 263 257 260 258 265 263 255 242 238 236 237 237 234 235 237
258 270 274 277 276 275 277 277 282 281 282 283 291 297 291 281 274 276 276 269 263 260 258 257 258 256 254 260 259 250 243 244 241 241 240 235 232 230
279 281 285 282 280 279 279 276 278 277 275 277 282 291 286 282 279 277 271 265 261 259 256 251 252 249 255 263 256 247 243 241 242 237 232 228 218 215
281 289 291 296 295 290 284 280 277 278 281 277 280 278 278 279 275 267 265 261 256 261 259 245 248 248 253 261 253 244 244 238 234 229 226 217 212 214
273 293 296 300 312 321 300 288 283 283 281 273 274 273 272 276 272 269 263 257 253 249 250 239 247 250 244 253 271 241 238 232 227 221 219 221 224 223
251 259 278 286 286 300 303 296 285 284 280 278 275 275 273 270 270 270 266 261 256 251 246 241 242 254 250 246 249 266 235 229 224 219 221 226 229 231
260 263 274 291 288 284 286 287 282 277 281 275 277 278 275 274 273 270 265 262 257 250 245 244 245 248 249 249 245 247 253 228 228 228 231 235 238 239
248 258 279 287 284 278 283 283 270 275 271 275 279 279 278 278 279 274 268 263 257 252 248 244 244 243 245 245 243 237 236 221 227 232 234 234 237 239
244 254 268 279 278 275 274 275 274 267 262 267 269 277 280 282 280 277 268 262 260 259 250 243 240 240 240 239 240 237 233 234 234 229 229 236 241 244
245 253 257 263 279 276 274 274 266 261 264 263 268 277 283 282 278 274 267 262 258 257 255 250 242 239 239 238 237 237 240 239 238 236 238 242 243 245
247 254 262 265 277 278 272 271 268 262 259 264 269 276 280 279 273 271 270 264 258 256 254 250 242 241 244 247 243 244 241 239 237 231 233 239 263 251
252 264 273 274 267 268 270 269 268 267 259 262 268 275 275 272 271 270 270 269 264 259 255 251 246 241 245 250 248 249 243 232 230 227 234 239 249 249
259 258 255 263 268 265 269 272 277 276 262 261 264 269 270 269 271 271 270 269 266 259 259 261 262 252 247 246 245 245 240 235 230 237 239 242 245 248
257 253 251 255 260 261 265 268 271 275 277 270 264 263 265 266 268 270 270 269 266 268 266 263 257 254 252 249 249 248 246 243 243 248 248 245 245 255
254 251 255 256 255 257 254 256 262 268 273 274 269 260 259 263 266 267 268 269 269 268 268 268 261 256 256 255 254 249 250 251 248 253 257 256 257 257
Height
1547 1549 1550 1551 1552 1553 1553 1553 1554 1554 1552 1552 1551 1548 1547 1544 1543 1543 1543 1541 1542 1543 1543 1543 1542 1543 1542 1541 1540 1537 1536 1534 1535 1538 1542 1546 1548 1552
1543 1547 1549 1549 1549 1549 1549 1550 1549 1548 1549 1547 1547 1544 1543 1542 1540 1539 1539 1539 1539 1539 1540 1539 1539 1539 1539 1538 1538 1534 1535 1534 1534 1536 1540 1544 1547 1549
1543 1543 1544 1545 1546 1546 1545 1545 1545 1544 1543 1542 1540 1541 1538 1537 1535 1535 1535 1535 1535 1535 1536 1535 1536 1536 1536 1535 1534 1533 1535 1536 1534 1535 1536 1540 1542 1545
1539 1539 1541 1541 1543 1543 1542 1541 1541 1540 1539 1538 1537 1535 1535 1535 1534 1531 1531 1530 1531 1531 1530 1531 1532 1533 1532 1532 1531 1532 1534 1534 1537 1538 1538 1539 1542 1545
1535 1536 1537 1539 1539 1537 1537 1537 1536 1534 1534 1533 1530 1531 1528 1528 1529 1527 1527 1526 1526 1525 1526 1527 1528 1529 1529 1529 1528 1529 1532 1532 1534 1537 1538 1539 1542 1543
1531 1532 1534 1535 1536 1535 1535 1532 1530 1528 1529 1528 1526 1526 1528 1528 1526 1521 1521 1520 1522 1522 1521 1523 1524 1525 1525 1525 1526 1527 1529 1529 1531 1534 1535 1537 1539 1541
1528 1529 1530 1531 1532 1532 1531 1529 1527 1525 1523 1522 1521 1519 1521 1523 1523 1521 1515 1515 1516 1516 1517 1517 1520 1521 1522 1522 1523 1524 1526 1527 1529 1530 1533 1534 1536 1538
1524 1526 1527 1527 1526 1526 1525 1523 1521 1520 1521 1522 1518 1518 1518 1520 1520 1517 1514 1510 1510 1513 1514 1514 1516 1517 1518 1518 1519 1520 1522 1523 1525 1527 1529 1531 1533 1535
1521 1522 1521 1521 1520 1520 1519 1517 1514 1513 1513 1512 1512 1513 1512 1514 1517 1515 1509 1507 1506 1509 1511 1511 1511 1513 1513 1514 1516 1516 1518 1519 1520 1522 1524 1527 1530 1531
1518 1517 1517 1515 1514 1515 1514 1512 1510 1509 1511 1509 1509 1508 1507 1510 1509 1508 1506 1505 1504 1505 1506 1507 1507 1508 1509 1510 1511 1513 1514 1516 1517 1518 1520 1523 1525 1527
1513 1513 1512 1511 1512 1509 1509 1508 1506 1504 1504 1505 1503 1504 1506 1507 1504 1503 1503 1501 1501 1502 1502 1503 1503 1503 1505 1506 1508 1509 1510 1512 1513 1515 1517 1519 1522 1524
1510 1509 1507 1507 1506 1505 1504 1503 1503 1502 1501 1500 1503 1497 1502 1500 1500 1497 1498 1500 1499 1499 1499 1499 1500 1501 1501 1501 1503 1504 1506 1508 1509 1512 1514 1516 1519 1521
1503 1502 1505 1505 1503 1500 1499 1498 1499 1498 1499 1498 1497 1494 1495 1498 1497 1494 1493 1496 1496 1495 1496 1496 1497 1498 1498 1499 1499 1500 1502 1504 1506 1508 1511 1513 1515 1518
1499 1500 1501 1502 1502 1497 1495 1492 1492 1495 1498 1498 1496 1490 1491 1492 1493 1490 1490 1492 1492 1492 1492 1493 1493 1495 1495 1495 1497 1497 1498 1500 1503 1505 1508 1510 1512 1514
1495 1497 1495 1494 1494 1492 1493 1491 1487 1488 1491 1495 1493 1487 1488 1489 1486 1486 1487 1488 1488 1488 1489 1489 1490 1491 1492 1492 1493 1495 1496 1497 1500 1502 1504 1507 1509 1511
1487 1490 1489 1490 1491 1489 1486 1488 1488 1480 1484 1492 1491 1486 1484 1483 1481 1482 1483 1484 1484 1484 1484 1484 1485 1486 1488 1489 1490 1492 1493 1495 1496 1498 1501 1502 1505 1507
1484 1485 1484 1484 1487 1483 1483 1484 1481 1479 1481 1487 1486 1481 1479 1477 1477 1478 1480 1480 1479 1479 1480 1480 1480 1482 1484 1485 1487 1488 1490 1491 1494 1495 1497 1499 1501 1503
1479 1478 1479 1478 1478 1479 1476 1478 1479 1477 1478 1482 1479 1476 1474 1473 1473 1475 1475 1476 1475 1476 1476 1477 1477 1478 1480 1482 1484 1485 1486 1488 1490 1492 1494 1495 1497 1499
1471 1473 1470 1469 1473 1474 1473 1475 1474 1473 1475 1475 1472 1471 1469 1469 1470 1471 1471 1471 1472 1472 1473 1473 1474 1476 1477 1478 1481 1481 1482 1484 1486 1487 1490 1491 1493 1495
1465 1464 1463 1466 1469 1470 1470 1470 1468 1468 1468 1468 1467 1466 1466 1466 1466 1466 1466 1467 1468 1469 1469 1470 1471 1472 1474 1476 1476 1478 1478 1480 1483 1484 1486 1488 1489 1490
1457 1457 1459 1462 1464 1464 1464 1464 1463 1462 1462 1461 1462 1462 1463 1463 1463 1462 1462 1462 1463 1464 1465 1466 1469 1470 1470 1471 1472 1474 1475 1476 1478 1480 1481 1483 1484 1485
1450 1451 1453 1455 1456 1457 1458 1458 1457 1456 1456 1455 1456 1457 1458 1458 1458 1458 1458 1458 1458 1459 1460 1463 1464 1465 1466 1467 1468 1470 1471 1473 1474 1475 1476 1478 1479 1480
1444 1445 1447 1448 1449 1450 1450 1450 1450 1450 1450 1450 1450 1452 1453 1453 1453 1453 1454 1454 1454 1455 1456 1457 1459 1460 1461 1462 1464 1464 1465 1467 1469 1470 1471 1472 1474 1474